Watertown, SD

2:59 AM CDT on July 25, 2017 (GMT -0500)
Watertown Municipal

Weather History for KATY - May, 2013

Change the Weather History Date:

Friday, May 24, 2013

  Actual Average Record
Temperature  
Mean Temperature 55 °F 59 °F  
Max Temperature 63 °F 70 °F 95 °F (1926)
Min Temperature 46 °F 48 °F 25 °F (2002)
Degree Days  
Heating Degree Days 10 7  
Month to date heating degree days 301 251  
Since 1 July heating degree days 8975 8402  
Cooling Degree Days 0 1  
Month to date cooling degree days 19 13  
Year to date cooling degree days 19 15  
Growing Degree Days 4 (Base 50)    
Moisture  
Dew Point 44 °F    
Average Humidity 67    
Maximum Humidity 83    
Minimum Humidity 51    
Precipitation  
Precipitation 0.17 in 0.09 in 1.62 in (1973)
Month to date precipitation 2.46 1.98  
Year to date precipitation 7.22 6.19  
Sea Level Pressure  
Sea Level Pressure 30.18 in    
Wind  
Wind Speed 12 mph (SE)    
Max Wind Speed 26 mph    
Max Gust Speed 33 mph    
Visibility 10 miles    
Events Rain , Thunderstorm    
T = Trace of Precipitation, MM = Missing Value Source: NWS Daily Summary

Daily Weather History Graph

Daily Weather History Graph

Search for Another Location

Airport or City:

Trip Planner

Search our weather history database for the weather conditions in past years. The results will help you decide how hot, cold, wet, or windy it might be!

Date:

Astronomy

May. 24, 2013 Rise Set
Actual Time 5:50 AM CDT 9:00 PM CDT
Civil Twilight 5:15 AM CDT 9:36 PM CDT
Nautical Twilight 4:29 AM CDT 10:22 PM CDT
Astronomical Twilight 3:34 AM CDT 11:18 PM CDT
Moon 8:43 PM CDT (5/24) 5:26 AM CDT (5/24)
Length of Visible Light 16h 20m
Length of Day
15h 09m
Full, 100% of the Moon is Illuminated
May 24
Full
May 24
Full
May 31
Last Quarter
Jun 8
New
Jun 16
First Quarter

Hourly Weather History & Observations

Time (CDT) Temp. Dew Point Humidity Pressure Visibility Wind Dir Wind Speed Gust Speed Precip Events Conditions
12:53 AM 48.9 °F 36.0 °F 61% 30.29 in 10.0 mi SE 6.9 mph - N/A   Clear
1:53 AM 48.0 °F 35.1 °F 61% 30.28 in 10.0 mi SE 8.1 mph - N/A   Clear
2:53 AM 46.9 °F 36.0 °F 66% 30.27 in 10.0 mi SE 8.1 mph - N/A   Clear
3:53 AM 46.9 °F 35.1 °F 63% 30.27 in 10.0 mi SE 10.4 mph - N/A   Clear
4:53 AM 46.9 °F 35.1 °F 63% 30.26 in 10.0 mi SE 11.5 mph - N/A   Clear
5:53 AM 46.9 °F 35.1 °F 63% 30.25 in 10.0 mi SE 8.1 mph - N/A   Clear
6:53 AM 46.9 °F 36.0 °F 66% 30.26 in 10.0 mi SSE 12.7 mph - N/A   Clear
7:53 AM 50.0 °F 36.0 °F 59% 30.25 in 10.0 mi SSE 15.0 mph - N/A   Clear
8:53 AM 55.0 °F 37.9 °F 53% 30.24 in 10.0 mi SSE 16.1 mph 26.5 mph N/A   Clear
9:53 AM 57.0 °F 39.9 °F 53% 30.22 in 10.0 mi SSE 19.6 mph 28.8 mph N/A   Mostly Cloudy
10:53 AM 57.0 °F 41.0 °F 55% 30.21 in 10.0 mi SSE 17.3 mph 26.5 mph 0.00 in   Overcast
11:53 AM 60.1 °F 44.1 °F 55% 30.19 in 10.0 mi South 20.7 mph 29.9 mph N/A   Overcast
12:53 PM 62.1 °F 44.1 °F 52% 30.16 in 10.0 mi South 23.0 mph 32.2 mph N/A   Mostly Cloudy
1:20 PM 60.8 °F 46.4 °F 59% 30.15 in 9.0 mi South 21.9 mph 31.1 mph 0.00 in Rain , Thunderstorm Light Rain
1:44 PM 57.2 °F 46.4 °F 67% 30.14 in 10.0 mi SSE 15.0 mph 24.2 mph 0.00 in   Overcast
1:53 PM 57.9 °F 46.0 °F 65% 30.16 in 10.0 mi SSE 15.0 mph - 0.00 in   Overcast
2:27 PM 57.2 °F 48.2 °F 72% 30.14 in 10.0 mi SSE 8.1 mph - 0.02 in Rain , Thunderstorm Light Rain
2:53 PM 55.0 °F 48.0 °F 77% 30.17 in 7.0 mi SSE 8.1 mph - 0.10 in Rain , Thunderstorm Rain
3:37 PM 55.4 °F 48.2 °F 77% 30.14 in 10.0 mi ESE 6.9 mph - 0.04 in Rain Light Rain
3:53 PM 55.9 °F 48.9 °F 77% 30.16 in 10.0 mi ESE 6.9 mph - 0.04 in   Overcast
4:53 PM 55.0 °F 50.0 °F 83% 30.12 in 10.0 mi SE 12.7 mph 23.0 mph 0.03 in   Overcast
5:53 PM 57.0 °F 48.9 °F 74% 30.10 in 10.0 mi ESE 10.4 mph 18.4 mph N/A   Overcast
6:53 PM 57.0 °F 48.9 °F 74% 30.09 in 10.0 mi ESE 9.2 mph - N/A   Overcast
7:53 PM 57.0 °F 48.0 °F 72% 30.09 in 10.0 mi SE 10.4 mph 18.4 mph N/A   Overcast
8:53 PM 57.0 °F 48.9 °F 74% 30.08 in 10.0 mi SE 9.2 mph 17.3 mph N/A   Overcast
9:53 PM 57.0 °F 50.0 °F 77% 30.06 in 10.0 mi ESE 9.2 mph - N/A   Overcast
10:53 PM 57.0 °F 50.0 °F 77% 30.08 in 10.0 mi SE 8.1 mph - N/A   Overcast
11:53 PM 57.0 °F 51.1 °F 81% 30.08 in 10.0 mi ESE 6.9 mph - N/A   Overcast